Location: Fennell Observatory
(35.2597°N, 89.5125°W)
Time: 07:15:08
(UTC-05:00)

Daily predictions for brighter satellites

Satellite Brightness Start Highest point End
(mag) Time Altitude Azimuth Time Altitude Azimuth Time Altitude Azimuth
Cosmos 1844 4.4 19:04:30 10° NNW 19:09:59 59° WSW 19:15:25 10° S
Tiangong 2 3.9 19:11:31 10° WSW 19:13:24 15° SW 19:15:17 10° S
IDEFIX/ARIANE 42P 3.7 19:09:14 10° S 19:14:17 51° W 19:19:23 10° NNW
Cosmos 1844 Rocket 4.4 19:10:20 10° NW 19:15:27 38° WSW 19:20:35 10° S
NOAA 12 4.4 19:10:34 10° SE 19:15:31 44° ENE 19:20:29 10° N
SKYMED 2 4.0 19:12:09 10° N 19:16:29 69° WNW 19:20:47 10° SSW
Cosmos 1371 Rocket 4.0 19:11:23 10° NNW 19:16:41 69° ENE 19:21:59 10° SSE
Atlas Centaur 2 3.5 19:09:24 10° W 19:17:46 57° S 19:25:37 10° ESE
ASTRO E2 3.3 19:15:49 10° WSW 19:19:41 45° S 19:23:33 10° E
Cosmos 2237 Rocket 3.6 19:17:41 10° SW 19:23:05 44° WNW 19:28:29 10° N
SAR-Lupe-1 4.0 19:23:14 10° SSE 19:26:44 62° ENE 19:30:16 10° N
Aureole 2 Rocket 3.0 19:23:41 10° SSW 19:28:03 88° ESE 19:32:25 10° NNE
Cosmos 1766 3.2 19:24:16 10° S 19:28:09 65° E 19:32:06 10° NNE
Abrixas 4.1 19:26:38 10° S 19:28:50 19° SE 19:30:15 14° E
ATLAS CENTAUR R/B 1.2 19:25:12 10° NNW 19:29:21 76° ENE 19:33:10 10° SSE
ATLAS 5 CENTAUR R/B 1.9 19:26:20 10° SSW 19:30:53 54° ESE 19:35:47 10° NE
Resurs 01 Rocket 2.2 19:27:20 10° SE 19:31:23 35° ENE 19:35:27 10° N
HJ-1C 4.2 19:29:06 10° SE 19:32:04 30° ENE 19:35:04 10° N
Okean 3 Rocket 3.6 19:29:11 10° N 19:33:45 84° E 19:38:17 10° S
Cosmos 1624 Rocket 3.9 19:29:07 10° NNW 19:34:21 81° ENE 19:39:31 10° SSE
USA 215 3.3 19:35:37 10° NE 19:42:11 85° NW 19:48:42 10° SW
SL-16 R/B 2.5 19:36:41 10° SSW 19:42:21 72° WNW 19:48:03 10° NNE
Cosmos 192 4.3 19:39:00 10° SSW 19:43:57 85° ESE 19:48:56 10° NNE
Meteor 1-29 3.2 19:43:07 10° NNE 19:46:31 47° E 19:49:53 10° S
Cosmos 1953 2.4 19:45:20 10° SSE 19:49:10 49° E 19:53:02 10° NNE
ISS -1.7 19:47:31 10° S 19:49:30 18° SE 19:49:30 18° SE
Spot 1 4.2 19:48:24 10° SSE 19:53:15 78° ENE 19:57:50 10° N
Helios 1A 3.0 19:51:35 10° SSE 19:55:41 60° ENE 19:59:49 10° N
OAO 1 Rocket 4.4 19:51:26 10° WSW 19:56:48 78° S 20:00:05 24° E
Nadezhda 4 Rocket 4.4 19:52:33 10° N 19:58:24 40° ENE 20:04:03 11° SSE
Cosmos 1805 3.1 19:56:10 10° S 20:00:04 69° E 20:03:59 10° NNE
H-2A R/B 3.7 20:01:10 28° E 20:01:24 28° ENE 20:04:46 10° NNE
SeaSat 1 3.0 19:57:15 10° NE 20:01:43 34° ESE 20:06:09 10° S
METEOR-M 4.1 19:56:46 10° SSE 20:02:07 89° W 20:07:30 10° NNW
Cosmos 1544 3.3 19:59:24 10° SSE 20:02:58 46° E 20:06:34 10° NNE
Cosmos 1452 Rocket 3.6 19:58:32 10° N 20:03:42 55° ENE 20:07:29 18° SE
Cosmos 1378 4.0 20:01:56 10° NNW 20:05:34 50° W 20:09:10 10° S
CZ-4B DEB 3.4 20:06:22 37° ENE 20:06:22 37° ENE 20:09:11 10° N
ALOS 2.5 20:04:18 19° SE 20:07:22 48° ENE 20:11:52 10° N
SEDSat Delta rocket 4.2 20:01:54 10° WSW 20:08:33 64° S 20:12:12 28° ESE
Cosmos 2278 Rocket 4.3 20:05:40 10° NW 20:10:24 28° WSW 20:15:06 10° SSW
FENGYUN 3A 3.7 20:06:43 15° SE 20:11:00 53° ENE 20:16:14 10° N
OAO 3 Rocket 3.1 20:06:35 10° W 20:11:22 88° S 20:13:22 36° E
Meteor 2-12 Rocket 4.4 20:07:21 10° S 20:13:30 82° E 20:19:41 10° N
Cosmos 724 4.3 20:07:55 10° SSW 20:13:48 89° ESE 20:19:54 10° NNE
Cosmos 2297 4.3 20:10:02 10° NNW 20:15:33 56° WSW 20:21:02 10° S
Cosmos 1634 Rocket 4.5 20:10:39 13° SSE 20:15:36 35° E 20:21:09 10° NNE
Cosmos 468 4.4 20:11:36 10° SSW 20:16:52 84° ESE 20:22:07 10° NNE
Cosmos 1766 Rocket 4.1 20:21:36 10° NNW 20:25:54 59° W 20:30:09 10° S
Cosmos 1943 3.8 20:21:22 10° S 20:33:10 - NNE 20:25:09 34° SE
Cosmos 1420 Rocket 4.2 20:21:38 10° N 20:26:46 49° ENE 20:27:35 45° E
Cosmos 2034 Rocket 4.4 20:21:30 10° SSW 20:27:40 65° W 20:33:56 10° N
Cosmos 2369 Rocket 3.4 20:24:55 10° N 20:28:54 24° NE 20:28:54 24° NE
Cosmos 1603 3.8 20:23:49 10° SSW 20:29:32 79° WNW 20:35:19 10° NNE
Cosmos 1758 4.5 20:26:51 10° SSW 20:30:44 44° W 20:34:41 10° N
Cosmos 1943 Rocket 4.3 20:34:35 10° NNE 20:35:15 11° NE 20:35:15 11° NE
Cosmos 1269 Rocket 4.0 20:33:06 10° SSW 20:38:22 81° WNW 20:43:40 10° NNE
GPS 2-04 Rocket1 3.8 20:38:55 10° WSW 20:41:01 32° SW 20:41:01 32° SW
Cosmos 1048 Rocket 3.9 20:37:21 10° SSW 20:42:41 87° WNW 20:47:59 10° NNE
BREEZE-M DEB (TANK) 4.4 20:11:37 10° NW 20:43:43 86° SW 20:46:50 40° SE
Cosmos-2242 4.5 20:40:08 10° SSW 20:44:10 38° W 20:48:16 10° N
ASTEX 1 3.6 20:41:34 10° N 20:46:28 71° W 20:51:18 10° SSW
SL-8 R/B 3.8 20:44:25 10° WSW 20:49:10 69° NW 20:49:42 62° N
CENTAUR R/B 2.3 20:44:59 10° SSW 20:50:51 71° ESE 20:53:12 40° NE
Cosmos 1674 4.2 20:49:51 10° N 20:51:56 30° N 20:51:56 30° N
Cosmos 1842 Rocket 3.8 20:55:05 64° WNW 20:55:05 64° WNW 20:59:21 10° N
ASTRO E2 4.4 20:56:14 10° W 20:58:31 29° WSW 20:58:31 29° WSW
Cosmos 1500 Rocket 4.2 20:55:44 10° N 20:59:05 50° NNW 20:59:05 50° NNW
Atlas Centaur 2 3.9 20:59:46 10° W 21:07:03 33° SSW 21:08:49 30° S
Resurs 01 Rocket 4.3 21:04:58 10° SW 21:07:55 17° W 21:10:53 10° NW
ATLAS 5 CENTAUR R/B 4.4 21:12:35 10° W 21:15:57 18° NW 21:19:31 10° N
SeaSat 1 4.3 21:34:56 10° N 21:39:05 28° WNW 21:43:12 10° WSW
Cosmos 2369 Rocket 4.2 22:08:23 10° NW 22:10:43 23° NW 22:10:43 23° NW
